Date String (YYYY-MM-DD hh:mm:ss) UTC,Instrument flags,Ambient pressure (hPa),Sample flow (lpm),Bypass flow (lpm),Sample temperature (°C),Ambient temperature (°C),ASC tube jacket temperature (°C),LED temperature (°C),Box temperature (°C),Sample RH (%),Span deviation,Mass concentration (μg/m³),Mass concentration (μg/m³),Mass concentration (μg/m³)
DateTimeUTC,F1_M11,P_M11,Q1_M11,Q2_M11,T1_M11,T2_M11,T3_M11,T4_M11,T5_M11,U1_M11,ZSPAN_M11,X0_M11,X2_M11,X1_M11
2022-10-27 01:00:00,,0818.8,5.01,0.00,27.7,25.9,00.0,36.5,29.5,12.2,0000.0,0006.13,0001.34,0000.82
2022-10-27 01:01:00,,0818.8,5.00,0.00,27.7,25.9,00.0,36.5,29.5,12.2,0000.0,0005.89,0001.27,0000.79
2022-10-27 01:02:00,,0818.7,5.00,0.00,27.7,25.9,00.0,36.5,29.5,12.2,0000.0,0005.36,0001.24,0000.76
2022-10-27 01:03:00,,0818.7,5.00,0.00,27.6,25.9,00.0,36.5,29.5,12.2,0000.0,0004.63,0001.17,0000.73
2022-10-27 01:04:00,,0818.8,5.00,0.00,27.7,25.9,00.0,36.5,29.5,12.2,0000.0,0004.24,0001.13,0000.72
2022-10-27 01:05:00,,0818.8,5.02,0.00,27.7,26.0,00.0,36.5,29.5,12.1,0000.0,0004.05,0001.10,0000.71
2022-10-27 01:06:00,,0818.7,5.00,0.00,27.7,26.1,00.0,36.5,29.5,12.2,0000.0,0003.95,0001.07,0000.70
2022-10-27 01:07:00,,0818.8,5.00,0.00,27.7,26.2,00.0,36.5,29.6,12.2,0000.0,0002.94,0001.08,0000.71
2022-10-27 01:08:00,,0818.7,5.00,0.00,27.7,26.2,00.0,36.5,29.6,12.2,0000.0,0001.85,0001.08,0000.70
2022-10-27 01:09:00,,0818.7,5.01,0.00,27.7,26.3,00.0,36.5,29.6,12.1,0000.0,0001.87,0001.09,0000.69
2022-10-27 01:10:00,,0818.8,5.00,0.00,27.7,26.3,00.0,36.5,29.6,12.1,0000.0,0001.84,0001.08,0000.69
2022-10-27 01:11:00,,0818.8,5.00,0.00,27.7,26.3,00.0,36.5,29.6,12.0,0000.0,0001.84,0001.08,0000.70
2022-10-27 01:12:00,,0818.8,5.00,0.00,27.8,26.3,00.0,36.5,29.6,12.0,0000.0,0002.09,0001.13,0000.70
2022-10-27 01:13:00,,0818.7,5.00,0.00,27.8,26.4,00.0,36.5,29.6,12.0,0000.0,0002.03,0001.11,0000.69
2022-10-27 01:14:00,,0818.7,4.99,0.00,27.8,26.4,00.0,36.5,29.7,12.0,0000.0,0002.14,0001.14,0000.69
2022-10-27 01:15:00,,0818.7,5.01,0.00,27.8,26.4,00.0,36.5,29.7,11.9,0000.0,0002.09,0001.14,0000.68
2022-10-27 01:16:00,,0818.7,5.00,0.00,27.8,26.4,00.0,36.6,29.7,11.9,0000.0,0002.42,0001.11,0000.68
2022-10-27 01:17:00,,0818.8,5.00,0.00,27.8,26.4,00.0,36.6,29.7,11.8,0000.0,0002.81,0001.14,0000.67
2022-10-27 01:18:00,,0818.7,4.99,0.00,27.8,26.4,00.0,36.6,29.7,11.7,0000.0,0002.78,0001.12,0000.67
2022-10-27 01:19:00,,0818.7,5.00,0.00,27.8,26.3,00.0,36.6,29.7,11.7,0000.0,0002.81,0001.12,0000.66
2022-10-27 01:20:00,,0818.8,5.00,0.00,27.8,26.4,00.0,36.6,29.7,11.8,0000.0,0002.74,0001.09,0000.66
2022-10-27 01:21:00,,0818.7,5.00,0.00,27.8,26.4,00.0,36.6,29.7,11.7,0000.0,0004.09,0001.13,0000.66
2022-10-27 01:22:00,,0818.7,5.02,0.00,27.8,26.4,00.0,36.6,29.7,11.7,0000.0,0004.43,0001.13,0000.65
2022-10-27 01:23:00,,0818.7,4.99,0.00,27.8,26.4,00.0,36.6,29.7,11.7,0000.0,0004.28,0001.08,0000.65
2022-10-27 01:24:00,,0818.8,5.00,0.00,27.9,26.4,00.0,36.6,29.7,11.7,0000.0,0004.15,0001.03,0000.65
2022-10-27 01:25:00,,0818.7,5.00,0.00,27.9,26.4,00.0,36.6,29.7,11.7,0000.0,0003.95,0000.98,0000.65
2022-10-27 01:26:00,,0818.7,5.00,0.00,27.9,26.4,00.0,36.6,29.7,11.7,0000.0,0003.95,0000.96,0000.64
2022-10-27 01:27:00,,0818.7,5.00,0.00,27.9,26.5,00.0,36.6,29.7,11.7,0000.0,0003.54,0000.95,0000.64
2022-10-27 01:28:00,,0818.7,5.00,0.00,27.9,26.5,00.0,36.6,29.8,11.7,0000.0,0003.10,0000.91,0000.64
2022-10-27 01:29:00,,0818.8,4.99,0.00,27.9,26.5,00.0,36.6,29.8,11.7,0000.0,0003.17,0000.91,0000.65
2022-10-27 01:30:00,,0818.8,5.00,0.00,27.9,26.5,00.0,36.6,29.8,11.7,0000.0,0003.17,0000.90,0000.65
2022-10-27 01:31:00,,0818.8,5.01,0.00,27.9,26.5,00.0,36.7,29.8,11.6,0000.0,0003.11,0000.87,0000.65
2022-10-27 01:32:00,,0818.8,5.00,0.00,27.9,26.5,00.0,36.7,29.8,11.6,0000.0,0001.92,0000.86,0000.65
2022-10-27 01:33:00,,0818.8,4.99,0.00,27.9,26.5,00.0,36.7,29.8,11.7,0000.0,0001.57,0000.87,0000.65
2022-10-27 01:34:00,,0818.8,5.00,0.00,27.9,26.5,00.0,36.7,29.8,11.6,0000.0,0001.51,0000.89,0000.66
2022-10-27 01:35:00,,0818.8,5.01,0.00,27.9,26.5,00.0,36.7,29.8,11.6,0000.0,0001.64,0000.94,0000.66
2022-10-27 01:36:00,,0818.8,4.99,0.00,28.0,26.5,00.0,36.7,29.8,11.6,0000.0,0001.66,0000.96,0000.67
2022-10-27 01:37:00,,0818.9,4.98,0.00,28.0,26.5,00.0,36.7,29.8,11.6,0000.0,0002.19,0000.98,0000.69
2022-10-27 01:38:00,,0818.9,5.01,0.00,28.0,26.5,00.0,36.7,29.8,11.6,0000.0,0002.90,0001.03,0000.72
2022-10-27 01:39:00,,0818.9,5.02,0.00,28.0,26.5,00.0,36.7,29.8,11.7,0000.0,0002.99,0001.08,0000.76
2022-10-27 01:40:00,,0818.9,4.99,0.00,28.0,26.5,00.0,36.7,29.9,11.6,0000.0,0002.97,0001.13,0000.79
2022-10-27 01:41:00,,0818.9,5.00,0.00,28.0,26.5,00.0,36.7,29.9,11.6,0000.0,0002.99,0001.17,0000.83
2022-10-27 01:42:00,,0818.9,5.01,0.00,28.0,26.5,00.0,36.7,29.9,11.7,0000.0,0003.15,0001.25,0000.86
2022-10-27 01:43:00,,0818.9,5.00,0.00,28.0,26.5,00.0,36.7,29.9,12.0,0000.0,0003.76,0001.33,0000.94
2022-10-27 01:44:00,,0818.9,4.98,0.00,28.0,26.5,00.0,36.7,29.9,12.2,0000.0,0005.25,0001.53,0001.07
2022-10-27 01:45:00,,0818.9,5.02,0.00,28.0,26.5,00.0,36.7,29.9,12.2,0000.0,0006.66,0001.79,0001.22
2022-10-27 01:46:00,,0819.0,4.98,0.00,28.0,26.5,00.0,36.7,29.9,12.2,0000.0,0007.84,0002.07,0001.40
2022-10-27 01:47:00,,0819.0,5.01,0.00,28.0,26.5,00.0,36.7,29.9,12.2,0000.0,0008.60,0002.34,0001.58
2022-10-27 01:48:00,,0819.0,4.99,0.00,28.0,26.5,00.0,36.7,29.9,12.2,0000.0,0009.67,0002.64,0001.79
2022-10-27 01:49:00,,0819.0,5.00,0.00,28.0,26.4,00.0,36.7,29.9,12.2,0000.0,0010.02,0002.96,0001.99
2022-10-27 01:50:00,,0819.0,5.00,0.00,28.0,26.4,00.0,36.7,29.8,12.1,0000.0,0010.30,0003.18,0002.18
2022-10-27 01:51:00,,0819.0,4.99,0.00,28.0,26.4,00.0,36.7,29.8,12.1,0000.0,0010.95,0003.28,0002.30
2022-10-27 01:52:00,,0818.9,5.02,0.00,28.0,26.4,00.0,36.7,29.8,12.1,0000.0,0011.65,0003.41,0002.45
2022-10-27 01:53:00,,0819.0,4.98,0.00,28.0,26.4,00.0,36.7,29.8,12.1,0000.0,0012.29,0003.57,0002.61
2022-10-27 01:54:00,,0819.0,5.01,0.00,28.0,26.4,00.0,36.7,29.8,12.1,0000.0,0013.93,0003.70,0002.76
2022-10-27 01:55:00,,0818.9,5.00,0.00,28.0,26.4,00.0,36.7,29.8,12.2,0000.0,0014.11,0003.79,0002.88
2022-10-27 01:56:00,,0818.9,4.99,0.00,28.0,26.4,00.0,36.7,29.8,12.2,0000.0,0013.85,0003.87,0003.02
2022-10-27 01:57:00,,0819.0,5.00,0.00,28.0,26.4,00.0,36.7,29.8,12.2,0000.0,0013.73,0003.93,0003.13
2022-10-27 01:58:00,,0819.0,5.00,0.00,28.0,26.5,00.0,36.8,29.8,12.2,0000.0,0013.72,0004.01,0003.19
2022-10-27 01:59:00,,0818.9,4.99,0.00,28.0,26.5,00.0,36.8,29.9,12.1,0000.0,0014.13,0004.07,0003.23
